User: anonymous   Login
Location: Unspecified
(0.0000°N, 0.0000°E)
Time: 04:05:59
(UTC+00:00)
Language:

CP3 - Orbit

View from above orbital plane
View from above orbital plane
View from above satellite
View from above satellite

Ground track
Ground track

The orbit data is extracted from the following two-line orbital elements,

1 31129U 07012N   18022.82102974  .00000099  00000-0  31531-4 0  9997
2 31129  98.1073 331.2203 0094308 233.5927 125.6547 14.56620015571479
Epoch (UTC): 22 January 2018 19:42:16
Eccentricity: 0.0094308
inclination: 98.1073°
perigee height: 637 km
apogee height: 771 km
right ascension of ascending node: 331.2203°
argument of perigee: 233.5927°
revolutions per day: 14.56620015
mean anomaly at epoch: 125.6547°
orbit number at epoch: 57147

The dashed part of the orbit path shows where the satellite is in the earth's shadow,  

DLR